Regional Weather Roundup
Issued by NWS Jackson, KY

Home | Current Version | Previous Version | Graphics & Text | Print | Product List | Glossary On
Versions: 1 2 3 4 5 6 7 8 9 10 11 12 13 14 15 16 17 18 19 20 21 22 23 24 25 26 27 28 29 30 31 32 33 34 35 36 37 38 39 40 41 42 43 44 45 46 47 48 49 50
000
ASUS43 KJKL 251010
RWRJKL

EAST KENTUCKY HOURLY WEATHER ROUNDUP
NATIONAL WEATHER SERVICE JACKSON KY
600 AM EDT WED MAY 25 2016

NOTE: "FAIR" INDICATES FEW OR NO CLOUDS BELOW 12,000 FEET WITH
NO SIGNIFICANT WEATHER AND/OR OBSTRUCTIONS TO VISIBILITY.

* THESE REPORTS ARE NOT UNDER NWS QUALITY CONTROL AND MAY NOT
  REPORT WEATHER SUCH AS PRECIPITATION AND FOG.

KYZ079-080-083-085-087-088-110-112-115-119-120-251100
...EASTERN KENTUCKY...

CITY           SKY/WX    TMP DP  RH WIND       PRES   REMARKS
JACKSON        PTCLDY    61  47  59 S3        30.18R
LONDON         CLEAR     55  50  83 CALM      30.16R
SOMERSET*      PTCLDY    54  54 100 CALM      30.15S
MONTICELLO*    CLEAR     58  55  90 W10       30.15R
WILLIAMSBURG*  SUNNY     57  54  88 SE7       30.16S
MIDDLESBORO*   CLEAR     51  50  97 CALM      30.21S
HARLAN APT*      N/A     52  50  93 CALM      30.21S
HAZARD APT*    PTSUNNY   52  52 100 CALM      30.18R
BLACK MTN*       N/A     59  48  67 S6          N/A
PIKE CO APT*     N/A     58  53  84 S5        30.19R
MOREHEAD APT*  CLOUDY    61  50  67 SE5       30.17R
ASHLAND*       MOCLDY    54  52  94 CALM      30.14R VSB 1/2
$$

KYZ035-036-041-042-044-050-067-078-099-251100
...CENTRAL KENTUCKY...

CITY           SKY/WX    TMP DP  RH WIND       PRES   REMARKS
MT STERLING*   CLEAR     59  52  77 S3        30.16R
FLEMING/MASON* MOCLDY    57  52  82 CALM      30.16R
DANVILLE*      CLEAR     59  54  82 CALM      30.14R
RICHMOND*      CLEAR     59  50  72 SE5       30.13S
LEXINGTON      MOCLDY    62  50  64 SE6       30.13R
FRANKFORT      CLOUDY    63  53  70 SE7       30.10S
LOUISVILLE     CLOUDY    68  55  63 SE5       30.07S
LEBANON*         N/A     66  54  63 SE10      30.11R
GLASGOW*       CLOUDY    64  58  81 CALM      30.10R
BOWLING GREEN  CLOUDY    66  61  84 E5        30.08R
$$

KYZ091>093-OHZ055-061-077-WVZ005-015-034-035-042-251100
...SOUTHERN OHIO/WEST VIRGINIA...

CITY           SKY/WX    TMP DP  RH WIND       PRES   REMARKS
COVINGTON      CLOUDY    64  53  67 S6        30.11R
COLUMBUS       CLOUDY    54  51  90 CALM      30.12S
DAYTON         CLOUDY    64  48  56 S7        30.12R
WILMINGTON     CLOUDY    61  51  70 S5        30.13R
HUNTINGTON       N/A     55  52  89 CALM      30.16R
CHARLESTON       N/A     51  50  96 SE3       30.17R
PINEVILLE*       N/A     48  46  90 MISG      30.27R
BECKLEY          N/A     51  46  83 CALM      30.23R
BLUEFIELD        N/A     59  45  59 CALM      30.25S
LOGAN CO APT*    N/A     57  54  88 CALM      30.20R
$$

VAZ002-007-008-TNZ017-027-036-066-071-251100
...SOUTHWEST VIRGINIA/EAST TENNESSEE...

CITY           SKY/WX    TMP DP  RH WIND       PRES   REMARKS
WISE*            N/A     55  43  62 CALM      30.25R
JONESVILLE*      N/A     50  50 100 CALM      30.23R
ABINGDON*        N/A     54  49  86 SE3       30.24R
BRISTOL        PTCLDY    50  48  93 CALM      30.22S
SEVIERVILLE*   PTSUNNY   55  50  82 CALM      30.18S
KNOXVILLE      PTCLDY    58  53  84 NE5       30.16R
OAK RIDGE      CLEAR     58  56  93 CALM      30.19R
CROSSVILLE     CLEAR     64  53  67 CALM      30.18R
NASHVILLE      CLOUDY    69  56  62 S3        30.10R
$$

...KEY TO REMARKS...
VSB - VISIBILITY IN MILES
WCI - WIND CHILL INDEX
HX  - HEAT INDEX

$$



USA.gov is the U.S. government's official web portal to all federal, state and local government web resources and services.